Weather History for Nantucket, MA

Change the Weather History Date:

Saturday, February 8, 2014

  Actual Average Record
Temperature  
Mean Temperature 26 °F -  
Max Temperature 30 °F 35 °F 55 °F (1971)
Min Temperature 23 °F 22 °F 5 °F (1963)
Degree Days  
Heating Degree Days 38    
Moisture  
Dew Point 14 °F    
Average Humidity 56    
Maximum Humidity 69    
Minimum Humidity 43    
Precipitation  
Precipitation 0.00 in - - ()
Sea Level Pressure  
Sea Level Pressure 30.22 in    
Wind  
Wind Speed 9 mph (West)    
Max Wind Speed 13 mph    
Max Gust Speed -    
Visibility 10 miles    
Events      
Averages and records for this station are not official NWS values.
T = Trace of Precipitation, MM = Missing Value Source: NWS Daily Summary

Daily Weather History Graph

Daily Weather History Graph

Search for Another Location

Airport:

Trip Planner

Search our weather history database for the weather conditions in past years. The results will help you decide how hot, cold, wet, or windy it might be!

Date:

Astronomy

Feb. 08, 2014 Rise Set
Actual Time 6:43 AM EST 5:05 PM EST
Civil Twilight 6:15 AM EST 5:34 PM EST
Nautical Twilight 5:42 AM EST 6:06 PM EST
Astronomical Twilight 5:10 AM EST 6:39 PM EST
Moon 11:56 AM EST (2/8) 1:54 AM EST (2/8)
Length of Visible Light 11h 19m
Length of Day
10h 21m
Waxing Gibbous, 68% of the Moon is Illuminated
Feb 8
Waxing Gibbous
Feb 14
Full
Feb 22
Last Quarter
Mar 1
New
Mar 8
First Quarter

Hourly Weather History & Observations

Time (EST) Temp. Windchill Dew Point Humidity Pressure Visibility Wind Dir Wind Speed Gust Speed Precip Events Conditions
12:53 AM 30.0 °F 20.0 °F 19.0 °F 64% 30.22 in 10.0 mi West 12.7 mph - N/A   Clear
1:53 AM 30.0 °F 20.0 °F 16.0 °F 56% 30.22 in 10.0 mi WNW 12.7 mph - N/A   Mostly Cloudy
2:53 AM 28.0 °F 18.1 °F 14.0 °F 56% 30.24 in 10.0 mi WNW 11.5 mph - N/A   Clear
3:53 AM 27.0 °F 18.0 °F 12.9 °F 56% 30.25 in 10.0 mi WNW 9.2 mph - N/A   Clear
4:53 AM 24.1 °F 16.0 °F 14.0 °F 65% 30.27 in 10.0 mi West 6.9 mph - N/A   Clear
5:53 AM 24.1 °F 17.0 °F 15.1 °F 69% 30.28 in 10.0 mi West 5.8 mph - N/A   Clear
6:53 AM 23.0 °F 15.8 °F 14.0 °F 68% 30.28 in 10.0 mi WNW 5.8 mph - N/A   Clear
7:53 AM 27.0 °F 16.7 °F 14.0 °F 58% 30.29 in 10.0 mi NW 11.5 mph - N/A   Clear
8:53 AM 27.0 °F 17.3 °F 9.0 °F 47% 30.30 in 10.0 mi NW 10.4 mph - N/A   Clear
9:53 AM 28.0 °F 17.5 °F 8.1 °F 43% 30.30 in 10.0 mi WNW 12.7 mph - N/A   Clear
10:53 AM 28.0 °F 19.3 °F 9.0 °F 45% 30.29 in 10.0 mi West 9.2 mph - N/A   Clear
11:53 AM 28.0 °F 20.0 °F 10.0 °F 47% 30.26 in 10.0 mi WSW 8.1 mph - N/A   Clear
12:53 PM 28.9 °F 21.1 °F 9.0 °F 43% 30.20 in 10.0 mi West 8.1 mph - N/A   Clear
1:53 PM 28.0 °F 20.0 °F 12.0 °F 51% 30.20 in 10.0 mi WSW 8.1 mph - N/A   Clear
2:53 PM 28.0 °F 20.8 °F 10.0 °F 47% 30.20 in 10.0 mi WSW 6.9 mph - N/A   Clear
3:53 PM 28.0 °F 17.5 °F 14.0 °F 56% 30.23 in 10.0 mi SW 12.7 mph - N/A   Mostly Cloudy
4:53 PM 28.9 °F 21.9 °F 15.1 °F 56% 30.22 in 10.0 mi West 6.9 mph - N/A   Overcast
5:53 PM 28.9 °F 20.4 °F 16.0 °F 58% 30.20 in 10.0 mi WSW 9.2 mph - N/A   Overcast
6:53 PM 28.0 °F 21.7 °F 16.0 °F 61% 30.17 in 10.0 mi West 5.8 mph - N/A   Overcast
7:53 PM 28.9 °F 22.8 °F 17.1 °F 61% 30.15 in 10.0 mi West 5.8 mph - N/A   Overcast
8:53 PM 28.9 °F 23.9 °F 17.1 °F 61% 30.14 in 10.0 mi NW 4.6 mph - N/A   Overcast
9:53 PM 28.9 °F 25.2 °F 16.0 °F 58% 30.14 in 10.0 mi WNW 3.5 mph - N/A   Overcast
10:53 PM 28.9 °F - 16.0 °F 58% 30.11 in 10.0 mi Calm Calm - N/A   Overcast
11:53 PM 28.0 °F - 16.0 °F 61% 30.11 in 10.0 mi Calm Calm - N/A   Overcast